RH
75 71 77 77 68 66 66 66 64 62 61 64 60 54 46 39 34 31 30 29 26 22 20 19 23 23 21 23 26 29 29 29 29 29 31 33 40 40
79 76 81 81 75 70 70 70 71 67 61 58 54 47 38 35 32 31 29 25 22 19 17 14 20 21 22 26 29 30 30 32 34 34 35 36 41 44
90 82 80 75 76 74 75 75 72 66 61 55 47 39 35 33 31 27 23 20 16 14 13 15 21 22 26 29 33 36 37 38 38 39 39 41 42 42
87 94 85 82 81 79 76 74 70 64 58 46 39 35 37 32 28 24 19 15 13 13 14 18 25 28 31 32 36 38 40 41 42 42 43 45 46 47
86 84 79 81 81 80 76 72 66 58 44 38 39 38 32 26 22 19 16 13 14 17 20 24 27 30 35 36 38 38 37 35 35 35 35 36 42 46
86 85 84 83 81 76 72 63 50 39 38 40 34 30 27 21 20 19 16 15 19 22 26 29 31 33 35 34 32 31 31 31 32 36 37 36 39 42
88 88 85 79 78 70 55 42 37 41 36 31 29 25 22 22 22 19 19 22 25 29 30 31 33 34 35 36 38 38 38 38 38 42 41 43 45 44
91 87 80 72 62 45 35 38 38 32 30 28 26 26 25 22 21 21 28 33 31 34 35 32 38 38 42 44 46 47 48 48 52 50 48 46 46 49
84 75 63 45 34 35 36 30 26 24 26 27 26 25 23 19 24 32 38 37 39 39 42 37 47 46 51 53 58 58 57 59 59 58 55 54 55 56
61 46 33 36 36 30 26 27 27 25 25 23 22 19 21 28 39 39 40 41 42 47 58 47 51 51 54 55 61 64 69 69 68 67 65 62 62 59
33 36 38 30 25 23 29 29 27 23 22 19 18 21 34 38 40 43 45 47 46 50 61 63 58 57 58 55 60 68 75 77 74 71 69 66 61 58
37 30 25 23 24 29 29 28 25 21 19 18 21 33 36 41 46 49 52 53 58 55 63 64 64 71 58 58 63 71 75 81 80 74 70 66 64 61
26 23 22 22 27 29 28 25 22 23 22 24 32 36 43 46 50 54 57 63 64 63 68 72 65 70 73 62 59 68 72 73 74 72 70 67 64 66
22 22 23 26 30 28 23 18 20 21 23 33 39 44 46 52 54 55 64 69 69 69 70 77 72 75 74 70 66 70 76 75 73 69 68 67 67 66
22 24 29 28 24 19 17 16 15 25 36 42 46 48 53 56 56 59 68 72 74 78 83 87 88 89 91 90 88 83 77 75 79 76 75 72 69 66
25 26 25 22 18 16 16 17 31 40 46 49 50 54 56 59 57 63 68 73 75 78 83 85 86 88 89 91 91 84 89 90 86 86 83 83 83 81
23 19 18 16 16 16 20 36 45 50 54 54 55 57 60 61 58 65 70 74 77 76 78 86 92 94 94 91 87 89 86 85 81 81 83 83 80 79
16 15 16 17 18 27 39 49 55 57 59 59 60 62 64 62 57 65 72 77 77 77 80 84 88 90 89 89 90 86 84 84 85 84 85 86 86 88
15 17 18 22 34 43 54 57 59 62 63 63 64 65 67 64 60 64 70 73 75 78 80 84 88 92 90 87 87 91 83 86 88 86 88 89 85 84
17 18 26 37 48 57 60 62 65 67 66 66 68 69 71 67 66 68 73 75 73 71 74 83 89 93 93 91 88 87 89 84 84 84 84 86 83 81
20 30 38 51 58 61 64 68 71 69 68 69 71 71 73 73 72 71 71 73 75 72 70 78 89 95 98 96 92 91 90 88 86 83 81 79 78 80
31 40 51 57 60 65 69 72 72 71 69 71 71 72 74 75 73 69 68 66 65 67 68 75 84 93 96 96 95 92 89 88 90 90 88 83 81 77
39 48 55 60 66 69 72 74 73 72 71 70 71 71 71 70 72 68 65 64 62 59 64 73 84 93 98 98 99 95 93 93 91 88 89 94 95 94